Simultaneous Nadir Overpasses (SNOs) Predictions

Prediction of SNOs near US between AQUA and NPP Satellite Orbit:

Table of predicted SNOs near US for the next 10.0 days since TLE Epoch: 5/2/2014
Index Date (AQUA) Time (AQUA) AQUA Lat,Lon Date (NPP) Time (NPP) NPP Lat,Lon Distance(km) Time Diff (sec)
1 05/03/2014 07:19:33 49.91, -76.07 05/03/2014 07:25:49 50.35, -78.25 162.43 376
2 05/05/2014 18:17:44 49.96, -80.24 05/05/2014 18:16:10 49.66, -81.94 126.22 94
3 05/05/2014 19:55:38 46.45,-103.57 05/05/2014 19:56:37 46.03,-105.79 177.25 59
4 05/08/2014 07:46:26 20.05, -89.61 05/08/2014 07:40:58 20.03, -89.48 13.25 328
5 05/08/2014 09:20:01 39.17,-109.30 05/08/2014 09:17:00 39.20,-109.50 17.86 181
6 05/11/2014 06:31:04 46.68, -65.03 05/11/2014 06:36:14 47.05, -66.99 154.64 310
7 05/11/2014 08:09:03 49.88, -88.47 05/11/2014 08:16:46 50.39, -90.92 183.38 463




NCC Satellite Simultaneous Nadir Overpasses (SNOs) Prediction Service
